When you browse on this site, cookies collect data to enhance your experience and personalize the content and advertising you see.
Visit our Privacy Policy to learn more. By continuing to use the site, you agree to this use of cookies and data.
  • In Portugal
  • List of Countries
  • For 7 days
  • Water Temperature
  • Weather Map
  • Weather Widgets
  • user-avatar
    Login

    Hourly Weather Useldange

    Today, 10 April, Friday

    Time Temperature Precipitation Wind Pressure Humidity
    00:00 +12°C° 0 mm 3 mps 742 mmHg 76%
    01:00 +11°C° 0 mm 3 mps 742 mmHg 79%
    02:00 +11°C° 0 mm 3 mps 742 mmHg 81%
    03:00 +10°C° 0 mm 2 mps 742 mmHg 84%
    04:00 +10°C° 0 mm 2 mps 742 mmHg 84%
    05:00 +10°C° 0 mm 2 mps 742 mmHg 84%
    06:00 +10°C° 0 mm 2 mps 742 mmHg 84%
    07:00 +14°C° 0 mm 2 mps 742 mmHg 78%
    08:00 +16°C° 0 mm 2 mps 742 mmHg 71%
    09:00 +18°C° 0 mm 3 mps 743 mmHg 65%
    10:00 +19°C° 0 mm 3 mps 743 mmHg 61%
    11:00 +20°C° 0 mm 3 mps 743 mmHg 57%
    12:00 +21°C° 0 mm 3 mps 742 mmHg 53%
    13:00 +21°C° 0 mm 2 mps 742 mmHg 52%
    14:00 +21°C° 0 mm 2 mps 742 mmHg 50%
    15:00 +21°C° 0 mm 2 mps 741 mmHg 49%
    16:00 +19°C° 0 mm 2 mps 741 mmHg 55%
    17:00 +18°C° 0 mm 2 mps 741 mmHg 61%
    18:00 +16°C° 0 mm 2 mps 741 mmHg 67%
    19:00 +15°C° 0 mm 2 mps 741 mmHg 68%
    20:00 +13°C° 0 mm 3 mps 741 mmHg 70%
    21:00 +11°C° 0 mm 3 mps 742 mmHg 71%
    22:00 +11°C° 0 mm 3 mps 742 mmHg 72%
    23:00 +10°C° 0 mm 3 mps 742 mmHg 73%

    Tomorrow, 11 April, Saturday

    Time Temperature Precipitation Wind Pressure Humidity
    00:00 +10°C° 0 mm 2 mps 742 mmHg 74%
    01:00 +9°C° 0 mm 2 mps 742 mmHg 76%
    02:00 +9°C° 0 mm 2 mps 742 mmHg 78%
    03:00 +9°C° 0 mm 2 mps 741 mmHg 79%
    04:00 +9°C° 0 mm 2 mps 742 mmHg 79%
    05:00 +9°C° 0 mm 2 mps 742 mmHg 79%
    06:00 +9°C° 0 mm 2 mps 742 mmHg 79%
    07:00 +12°C° 0 mm 2 mps 742 mmHg 73%
    08:00 +14°C° 0 mm 2 mps 742 mmHg 66%
    09:00 +16°C° 0 mm 2 mps 742 mmHg 60%
    10:00 +18°C° 0 mm 2 mps 742 mmHg 57%
    11:00 +19°C° 0 mm 2 mps 742 mmHg 54%
    12:00 +20°C° 0 mm 2 mps 742 mmHg 50%
    13:00 +21°C° 0 mm 1 mps 741 mmHg 49%
    14:00 +22°C° 0 mm 1 mps 741 mmHg 48%
    15:00 +22°C° 0 mm 1 mps 740 mmHg 47%
    16:00 +20°C° 0 mm 1 mps 740 mmHg 53%
    17:00 +19°C° 0 mm 1 mps 740 mmHg 58%
    18:00 +18°C° 0 mm 1 mps 740 mmHg 64%
    19:00 +16°C° 0 mm 1 mps 740 mmHg 68%
    20:00 +15°C° 0 mm 1 mps 740 mmHg 71%
    21:00 +13°C° 0 mm 1 mps 740 mmHg 75%
    22:00 +12°C° 0 mm 0 mps 740 mmHg 76%
    23:00 +12°C° 0 mm 0 mps 740 mmHg 77%

    Day after tomorrow, 12 April, Sunday

    Time Temperature Precipitation Wind Pressure Humidity
    00:00 +11°C° 0 mm 0 mps 739 mmHg 78%
    01:00 +11°C° 0 mm 0 mps 739 mmHg 79%
    02:00 +11°C° 0 mm 1 mps 739 mmHg 80%
    03:00 +11°C° 0 mm 1 mps 738 mmHg 80%
    04:00 +11°C° 0 mm 1 mps 738 mmHg 80%
    05:00 +11°C° 0 mm 1 mps 738 mmHg 79%
    06:00 +12°C° 0 mm 1 mps 738 mmHg 78%
    07:00 +13°C° 0 mm 1 mps 738 mmHg 73%
    08:00 +15°C° 0 mm 2 mps 737 mmHg 67%
    09:00 +17°C° 0 mm 2 mps 737 mmHg 62%
    10:00 +18°C° 0.2 mm 3 mps 737 mmHg 61%
    11:00 +19°C° 0.2 mm 3 mps 736 mmHg 59%
    12:00 +20°C° 0.2 mm 4 mps 736 mmHg 57%
    13:00 +20°C° 0.2 mm 4 mps 735 mmHg 56%
    14:00 +20°C° 0.2 mm 4 mps 735 mmHg 55%
    15:00 +20°C° 0.2 mm 4 mps 734 mmHg 54%
    16:00 +18°C° 0.4 mm 4 mps 733 mmHg 62%
    17:00 +17°C° 0.4 mm 3 mps 733 mmHg 70%
    18:00 +15°C° 0.4 mm 2 mps 732 mmHg 78%
    19:00 +14°C° 0.1 mm 1 mps 732 mmHg 79%
    20:00 +13°C° 0.1 mm 1 mps 733 mmHg 81%
    21:00 +11°C° 0.1 mm 0 mps 733 mmHg 82%
    22:00 +11°C° 0 mm 0 mps 732 mmHg 83%
    23:00 +12°C° 0 mm 1 mps 732 mmHg 84%

    13 April, Monday

    Time Temperature Precipitation Wind Pressure Humidity
    00:00 +11°C° 0 mm 1 mps 732 mmHg 85%
    01:00 +11°C° 0 mm 1 mps 732 mmHg 86%
    02:00 +10°C° 0 mm 1 mps 732 mmHg 86%
    03:00 +10°C° 0 mm 1 mps 732 mmHg 86%
    04:00 +10°C° 0 mm 1 mps 732 mmHg 86%
    05:00 +9°C° 0 mm 2 mps 732 mmHg 86%
    06:00 +9°C° 0 mm 2 mps 733 mmHg 87%
    07:00 +12°C° 0 mm 2 mps 733 mmHg 83%
    08:00 +13°C° 0 mm 2 mps 733 mmHg 80%
    09:00 +15°C° 0 mm 2 mps 734 mmHg 76%
    10:00 +16°C° 0.4 mm 2 mps 734 mmHg 73%
    11:00 +17°C° 0.4 mm 2 mps 734 mmHg 70%
    12:00 +17°C° 0.4 mm 2 mps 734 mmHg 67%
    13:00 +17°C° 0.8 mm 2 mps 734 mmHg 68%
    14:00 +17°C° 0.8 mm 2 mps 734 mmHg 69%
    15:00 +17°C° 0.8 mm 2 mps 733 mmHg 70%
    16:00 +16°C° 0.6 mm 3 mps 733 mmHg 74%
    17:00 +14°C° 0.6 mm 4 mps 733 mmHg 78%
    18:00 +13°C° 0.6 mm 5 mps 734 mmHg 82%
    19:00 +12°C° 0 mm 5 mps 734 mmHg 84%
    20:00 +10°C° 0 mm 5 mps 735 mmHg 86%
    21:00 +9°C° 0 mm 5 mps 735 mmHg 88%
    22:00 +8°C° 0 mm 5 mps 736 mmHg 88%
    23:00 +7°C° 0 mm 5 mps 736 mmHg 89%

    14 April, Tuesday

    Time Temperature Precipitation Wind Pressure Humidity
    00:00 +6°C° 0 mm 5 mps 736 mmHg 89%
    01:00 +4°C° 0 mm 6 mps 736 mmHg 89%
    02:00 +3°C° 0 mm 6 mps 736 mmHg 89%
    03:00 +2°C° 0 mm 6 mps 736 mmHg 89%
    04:00 +2°C° 0 mm 6 mps 736 mmHg 87%
    05:00 +1°C° 0 mm 6 mps 736 mmHg 84%
    06:00 +1°C° 0 mm 6 mps 736 mmHg 82%
    07:00 +2°C° 0 mm 6 mps 736 mmHg 72%
    08:00 +4°C° 0 mm 7 mps 737 mmHg 62%
    09:00 +5°C° 0 mm 7 mps 737 mmHg 52%
    10:00 +8°C° 0 mm 7 mps 737 mmHg 48%
    11:00 +9°C° 0 mm 7 mps 737 mmHg 44%
    12:00 +10°C° 0 mm 8 mps 736 mmHg 40%
    13:00 +10°C° 0 mm 7 mps 736 mmHg 41%
    14:00 +11°C° 0 mm 7 mps 735 mmHg 41%
    15:00 +11°C° 0 mm 7 mps 735 mmHg 42%
    16:00 +10°C° 0 mm 6 mps 734 mmHg 47%
    17:00 +9°C° 0 mm 5 mps 734 mmHg 52%
    18:00 +7°C° 0 mm 5 mps 734 mmHg 56%
    19:00 +7°C° 0 mm 5 mps 734 mmHg 55%
    20:00 +5°C° 0 mm 6 mps 734 mmHg 54%
    21:00 +4°C° 0 mm 7 mps 735 mmHg 52%
    22:00 +3°C° 0 mm 7 mps 735 mmHg 53%
    23:00 +3°C° 0 mm 7 mps 734 mmHg 54%

    15 April, Wednesday

    Time Temperature Precipitation Wind Pressure Humidity
    00:00 +2°C° 0 mm 6 mps 734 mmHg 55%
    01:00 +2°C° 0 mm 6 mps 734 mmHg 56%
    02:00 +1°C° 0 mm 6 mps 734 mmHg 58%
    03:00 +1°C° 0 mm 6 mps 734 mmHg 59%
    04:00 +1°C° 0 mm 6 mps 734 mmHg 59%
    05:00 0°C° 0 mm 7 mps 734 mmHg 59%
    06:00 0°C° 0 mm 7 mps 734 mmHg 59%
    07:00 +3°C° 0 mm 7 mps 734 mmHg 56%
    08:00 +5°C° 0 mm 7 mps 733 mmHg 52%
    09:00 +7°C° 0 mm 8 mps 733 mmHg 49%
    10:00 +9°C° 0 mm 7 mps 733 mmHg 47%
    11:00 +11°C° 0 mm 7 mps 733 mmHg 45%
    12:00 +12°C° 0 mm 7 mps 732 mmHg 44%
    13:00 +12°C° 0 mm 7 mps 732 mmHg 45%
    14:00 +14°C° 0 mm 7 mps 731 mmHg 46%
    15:00 +14°C° 0 mm 6 mps 731 mmHg 47%
    16:00 +13°C° 0 mm 6 mps 731 mmHg 50%
    17:00 +11°C° 0 mm 6 mps 731 mmHg 54%
    18:00 +10°C° 0 mm 5 mps 730 mmHg 57%
    19:00 +9°C° 0 mm 5 mps 731 mmHg 57%
    20:00 +8°C° 0 mm 4 mps 732 mmHg 56%
    21:00 +8°C° 0 mm 4 mps 732 mmHg 56%
    22:00 +9°C° 0 mm 3 mps 733 mmHg 58%
    23:00 +9°C° 0 mm 2 mps 733 mmHg 61%
    Show more